GW0701 Weather Reports


Display with metric or nautical units.
time (UTC)temp
F
wind
direction
speed
MPH
gust
MPH
rain 1hr
in
rain 24hr
in
rain mn
in
humidity
%
barometer
mb
20260504151139 72 218 5.0 7.0 0.00 0.00 0.00 58 1002.2
20260504150636 71 257 6.0 10.0 0.00 0.00 0.00 58 1002.5
20260504150133 71 198 5.0 6.0 0.00 0.00 0.00 58 1002.3
20260504141101 69 228 4.0 5.0 0.00 0.00 0.00 64 1003.1
20260504140558 69 214 3.0 3.0 0.00 0.00 0.00 66 1003.0
20260504130522 63 200 2.0 2.0 0.00 0.00 0.00 75 1003.5
20260504110409 52 208 0.0 0.0 0.00 0.00 0.00 88 1003.9
20260504100326 51 248 0.0 0.0 0.00 0.00 0.00 90 1004.5
20260504081720 53 223 1.0 1.0 0.00 0.00 0.00 81 1005.4
20260504081216 53 224 0.0 1.0 0.00 0.00 0.00 82 1005.6
20260504080712 53 217 0.0 0.0 0.00 0.00 0.00 82 1005.5
20260504080209 53 215 0.0 1.0 0.00 0.00 0.00 82 1005.8
20260504070137 57 250 0.0 0.0 0.00 0.00 0.00 72 1006.2
20260504050526 58 224 1.0 2.0 0.00 0.00 0.00 71 1006.9
20260504050023 58 221 0.0 1.0 0.00 0.00 0.00 66 1006.7
20260504045519 57 223 1.0 1.0 0.00 0.00 0.00 68 1006.3
20260504045015 58 239 0.0 0.0 0.00 0.00 0.00 68 1006.8
20260504044512 59 239 0.0 0.0 0.00 0.00 0.00 64 1006.7
20260504044009 59 240 0.0 0.0 0.00 0.00 0.00 65 1006.8
20260504043506 59 230 0.0 0.0 0.00 0.00 0.00 66 1006.8
20260504043004 59 249 0.0 0.0 0.00 0.00 0.00 62 1007.1
20260504042500 59 249 1.0 1.0 0.00 0.00 0.00 64 1006.8
20260504041957 60 249 0.0 0.0 0.00 0.00 0.00 63 1007.0
20260504041453 60 250 0.0 0.0 0.00 0.00 0.00 65 1006.9
20260504040949 61 251 1.0 1.0 0.00 0.00 0.00 61 1007.1
20260504040447 61 248 0.0 0.0 0.00 0.00 0.00 61 1007.2
20260504035943 61 248 0.0 1.0 0.00 0.00 0.00 59 1007.4
20260504035441 60 244 1.0 1.0 0.00 0.00 0.00 63 1007.6
20260504034937 60 227 0.0 0.0 0.00 0.00 0.00 65 1007.4
20260504034434 60 227 1.0 1.0 0.00 0.00 0.00 65 1007.4
20260504033931 62 234 0.0 0.0 0.00 0.00 0.00 60 1007.4
20260504033429 61 225 0.0 0.0 0.00 0.00 0.00 60 1007.7
20260504032926 61 224 0.0 0.0 0.00 0.00 0.00 63 1007.6
20260504032423 61 224 1.0 1.0 0.00 0.00 0.00 64 1007.6
20260504031919 62 224 1.0 1.0 0.00 0.00 0.00 63 1007.6
20260504031417 62 225 1.0 1.0 0.00 0.00 0.00 62 1007.8
20260504030913 64 231 1.0 1.0 0.00 0.00 0.00 57 1007.8
20260504030410 65 244 0.0 1.0 0.00 0.00 0.00 54 1007.9
20260504025906 65 248 2.0 2.0 0.00 0.00 0.00 53 1007.8
20260504025403 65 242 2.0 2.0 0.00 0.00 0.00 53 1007.9
20260504024900 64 247 2.0 2.0 0.00 0.00 0.00 54 1007.9
20260504024356 63 234 1.0 1.0 0.00 0.00 0.00 57 1007.7
20260504023854 63 232 1.0 1.0 0.00 0.00 0.00 58 1008.1
20260504023350 63 226 1.0 1.0 0.00 0.00 0.00 60 1007.8
20260504022846 62 225 0.0 0.0 0.00 0.00 0.00 61 1007.8
20260504022343 63 225 0.0 0.0 0.00 0.00 0.00 61 1007.8
20260504021839 63 226 0.0 0.0 0.00 0.00 0.00 60 1007.8
20260504021337 63 225 0.0 0.0 0.00 0.00 0.00 59 1007.9
20260504020834 63 219 0.0 0.0 0.00 0.00 0.00 60 1007.7
20260504020331 63 219 0.0 0.0 0.00 0.00 0.00 60 1007.8
20260504015826 64 220 1.0 1.0 0.00 0.00 0.00 61 1007.9
20260504015323 64 227 0.0 1.0 0.00 0.00 0.00 58 1008.1
20260504014819 64 216 0.0 1.0 0.00 0.00 0.00 60 1007.7
20260504014315 64 213 1.0 1.0 0.00 0.00 0.00 60 1007.6
20260504013813 64 223 0.0 0.0 0.00 0.00 0.00 58 1007.9
20260504013311 64 219 0.0 0.0 0.00 0.00 0.00 59 1007.9
20260504012807 66 218 1.0 1.0 0.00 0.00 0.00 60 1007.7
20260504012305 66 233 0.0 1.0 0.00 0.00 0.00 54 1008.0
20260504011802 67 237 0.0 1.0 0.00 0.00 0.00 53 1007.6
20260504011258 67 236 2.0 2.0 0.00 0.00 0.00 52 1007.8
20260504010754 67 251 1.0 1.0 0.00 0.00 0.00 52 1007.7
20260504010250 67 264 2.0 3.0 0.00 0.00 0.00 51 1007.6
20260504005747 68 244 3.0 3.0 0.00 0.00 0.00 51 1007.8
20260504005244 68 240 1.0 1.0 0.00 0.00 0.00 51 1007.7
20260504004742 68 248 1.0 2.0 0.00 0.00 0.00 50 1007.7
20260504004239 68 248 1.0 1.0 0.00 0.00 0.00 51 1007.7
20260504003735 68 251 2.0 2.0 0.00 0.00 0.00 50 1007.8
20260504003232 69 238 1.0 2.0 0.00 0.00 0.00 50 1007.9
20260504002729 69 238 1.0 2.0 0.00 0.00 0.00 49 1007.8
20260504002226 69 255 3.0 3.0 0.00 0.00 0.00 49 1007.8
20260504001724 69 257 4.0 5.0 0.00 0.00 0.00 49 1007.9
20260504001220 70 242 1.0 1.0 0.00 0.00 0.00 49 1007.7
20260504000717 70 271 2.0 2.0 0.00 0.00 0.00 49 1007.9
20260504000214 70 239 1.0 1.0 0.00 0.00 0.00 50 1007.4
20260503235713 70 269 4.0 6.0 0.00 0.00 0.00 48 1007.8
20260503235209 70 236 1.0 2.0 0.00 0.00 0.00 50 1007.5
20260503234707 70 254 1.0 2.0 0.00 0.00 0.00 50 1008.1
20260503234205 70 258 2.0 3.0 0.00 0.00 0.00 49 1007.8
20260503233701 70 236 1.0 1.0 0.00 0.00 0.00 48 1007.5
20260503233157 70 233 1.0 2.0 0.00 0.00 0.00 48 1007.9
20260503232654 71 240 1.0 1.0 0.00 0.00 0.00 48 1007.8
20260503232151 71 264 3.0 3.0 0.00 0.00 0.00 49 1007.8
20260503231650 71 269 2.0 2.0 0.00 0.00 0.00 47 1007.6
20260503231145 71 262 4.0 6.0 0.00 0.00 0.00 46 1008.2
20260503230642 71 281 4.0 6.0 0.00 0.00 0.00 48 1008.2
20260503230139 71 276 4.0 5.0 0.00 0.00 0.00 48 1008.0
20260503225637 71 263 3.0 5.0 0.00 0.00 0.00 48 1007.8
20260503225136 71 235 5.0 7.0 0.00 0.00 0.00 48 1008.0
20260503224634 71 263 3.0 3.0 0.00 0.00 0.00 50 1007.9
20260503224132 71 254 3.0 3.0 0.00 0.00 0.00 48 1007.7
20260503223630 71 244 3.0 3.0 0.00 0.00 0.00 49 1007.4
20260503223126 71 253 3.0 5.0 0.00 0.00 0.00 47 1007.2
20260503222623 71 259 7.0 8.0 0.00 0.00 0.00 48 1008.1
20260503222121 71 263 2.0 2.0 0.00 0.00 0.00 48 1008.1
20260503221619 71 250 7.0 8.0 0.00 0.00 0.00 47 1008.0
20260503221116 71 229 5.0 7.0 0.00 0.00 0.00 47 1007.9
20260503220613 72 230 3.0 5.0 0.00 0.00 0.00 50 1007.9
20260503220109 71 238 4.0 5.0 0.00 0.00 0.00 47 1008.0
20260503215607 72 242 3.0 3.0 0.00 0.00 0.00 48 1008.0
20260503215103 73 251 4.0 6.0 0.00 0.00 0.00 48 1008.1
20260503214602 72 259 6.0 8.0 0.00 0.00 0.00 47 1008.3
20260503214058 72 252 4.0 5.0 0.00 0.00 0.00 47 1007.9
20260503213556 71 272 5.0 7.0 0.00 0.00 0.00 47 1007.9
20260503213053 71 229 3.0 3.0 0.00 0.00 0.00 47 1007.8
20260503212550 71 273 6.0 8.0 0.00 0.00 0.00 46 1008.0
20260503212047 72 278 4.0 7.0 0.00 0.00 0.00 47 1007.9
20260503211545 71 271 5.0 8.0 0.00 0.00 0.00 46 1007.9
20260503211040 71 236 3.0 3.0 0.00 0.00 0.00 46 1008.0
20260503210537 71 231 6.0 7.0 0.00 0.00 0.00 47 1008.0
20260503210033 71 246 5.0 8.0 0.00 0.00 0.00 47 1008.2
20260503205530 71 264 3.0 3.0 0.00 0.00 0.00 48 1008.7
20260503205026 71 242 3.0 5.0 0.00 0.00 0.00 48 1008.3
20260503204523 71 243 5.0 7.0 0.00 0.00 0.00 48 1008.7
20260503204020 71 270 10.0 14.0 0.00 0.00 0.00 46 1008.6
20260503203517 71 240 6.0 8.0 0.00 0.00 0.00 48 1008.5
20260503203014 71 240 6.0 8.0 0.00 0.00 0.00 48 1008.7
20260503202512 71 253 3.0 3.0 0.00 0.00 0.00 51 1008.6
20260503202010 70 234 4.0 6.0 0.00 0.00 0.00 50 1008.5
20260503201508 70 257 3.0 5.0 0.00 0.00 0.00 49 1008.6
20260503201005 70 225 5.0 7.0 0.00 0.00 0.00 49 1008.8
20260503200501 70 198 5.0 7.0 0.00 0.00 0.00 49 1008.8
20260503195957 69 215 3.0 5.0 0.00 0.00 0.00 49 1008.7
20260503195455 69 212 5.0 7.0 0.00 0.00 0.00 51 1008.9
20260503194951 68 281 7.0 11.0 0.00 0.00 0.00 51 1009.3
20260503194449 68 262 4.0 5.0 0.00 0.00 0.00 51 1008.9
20260503193943 68 214 3.0 5.0 0.00 0.00 0.00 51 1009.0
20260503193439 68 248 5.0 7.0 0.00 0.00 0.00 51 1008.9
20260503192935 68 233 6.0 7.0 0.00 0.00 0.00 50 1008.7
20260503192432 68 238 7.0 9.0 0.00 0.00 0.00 51 1008.9
20260503191927 69 217 4.0 6.0 0.00 0.00 0.00 50 1009.0
20260503191425 69 241 8.0 11.0 0.00 0.00 0.00 51 1009.2
20260503190921 68 208 6.0 7.0 0.00 0.00 0.00 51 1009.0
20260503190419 68 218 3.0 5.0 0.00 0.00 0.00 52 1009.2
20260503185915 68 265 8.0 13.0 0.00 0.00 0.00 50 1009.3
20260503185412 68 247 5.0 7.0 0.00 0.00 0.00 52 1009.8
20260503184911 67 246 6.0 7.0 0.00 0.00 0.00 51 1009.7
20260503184408 67 253 8.0 14.0 0.00 0.00 0.00 51 1009.7
20260503183904 67 246 4.0 6.0 0.00 0.00 0.00 53 1010.0
20260503183401 67 212 9.0 11.0 0.00 0.00 0.00 51 1009.4
20260503182858 66 223 7.0 10.0 0.00 0.00 0.00 53 1009.3
20260503182357 66 239 5.0 7.0 0.00 0.00 0.00 52 1009.7
20260503181854 65 205 3.0 5.0 0.00 0.00 0.00 52 1009.8
20260503181351 65 220 3.0 3.0 0.00 0.00 0.00 53 1010.2
20260503180847 65 263 4.0 6.0 0.00 0.00 0.00 53 1009.7
20260503180345 65 258 4.0 6.0 0.00 0.00 0.00 52 1010.0
20260503175841 65 258 6.0 7.0 0.00 0.00 0.00 52 1010.4
20260503175340 65 258 5.0 6.0 0.00 0.00 0.00 53 1010.6
20260503174835 65 237 4.0 5.0 0.00 0.00 0.00 52 1010.5
20260503174333 64 243 4.0 5.0 0.00 0.00 0.00 53 1010.4
20260503173828 64 219 7.0 8.0 0.00 0.00 0.00 51 1009.6
20260503173325 64 221 6.0 8.0 0.00 0.00 0.00 52 1010.1
20260503172822 64 222 5.0 7.0 0.00 0.00 0.00 52 1010.8
20260503172320 65 271 5.0 8.0 0.00 0.00 0.00 51 1010.9
20260503171815 65 278 5.0 6.0 0.00 0.00 0.00 50 1011.0
20260503171312 64 210 6.0 7.0 0.00 0.00 0.00 51 1010.8
20260503170809 63 222 4.0 6.0 0.00 0.00 0.00 53 1011.0
20260503170306 63 217 5.0 7.0 0.00 0.00 0.00 52 1010.9